EW4462 Weather Reports


Display with metric or nautical units.
time (UTC)temp
F
wind
direction
speed
MPH
gust
MPH
rain 1hr
in
rain 24hr
in
rain mn
in
humidity
%
barometer
mb
20260903164052 75 64 0.0 0.0 0.00 0.00 0.00 71 1015.4
20260903161930 74 57 0.0 0.0 0.00 0.00 0.00 75 1015.3
20260903155803 71 61 0.0 0.0 0.00 0.00 0.00 77 1015.5
20260903154800 72 60 0.0 0.0 0.00 0.00 0.00 76 1015.5
20260903152605 71 57 0.0 0.0 0.00 0.00 0.00 80 1015.6
20260903151555 70 57 0.0 0.0 0.00 0.00 0.00 83 1015.6
20260903150609 68 57 0.0 0.0 0.00 0.00 0.00 89 1015.6
20260903145613 65 57 0.0 0.0 0.00 0.00 0.00 93 1015.7
20260903143432 61 57 0.0 0.0 0.00 0.00 0.00 93 1015.4
20260903140124 60 55 0.0 0.0 0.00 0.00 0.00 92 1015.1
20260903135056 60 55 0.0 0.0 0.00 0.00 0.00 92 1015.0
20260903134036 60 102 0.0 0.0 0.00 0.00 0.00 92 1014.9
20260903133022 60 102 0.0 0.0 0.00 0.00 0.00 91 1014.9
20260903132000 60 102 0.0 0.0 0.00 0.00 0.00 91 1014.7
20260903131015 60 102 0.0 0.0 0.00 0.00 0.00 91 1014.6
20260903130021 60 102 0.0 0.0 0.00 0.00 0.00 91 1014.7
20260903125042 60 101 0.0 0.0 0.00 0.00 0.00 91 1014.7
20260903124015 60 102 0.0 0.0 0.00 0.00 0.00 91 1014.6
20260903121835 60 102 0.0 0.0 0.00 0.00 0.00 91 1014.5
20260903120835 60 102 0.0 0.0 0.00 0.00 0.00 90 1014.5
20260903115837 60 101 0.0 0.0 0.00 0.00 0.00 90 1014.5
20260903114805 61 102 0.0 0.0 0.00 0.00 0.00 91 1014.5
20260903113821 61 102 0.0 0.0 0.00 0.00 0.00 91 1014.6
20260903112846 61 102 0.0 0.0 0.00 0.00 0.00 91 1014.7
20260903110644 60 101 0.0 0.0 0.00 0.00 0.00 91 1014.5
20260903105652 60 102 0.0 0.0 0.00 0.00 0.00 90 1014.6
20260903103502 61 102 0.0 0.0 0.00 0.00 0.00 90 1014.7
20260903102457 61 102 0.0 0.0 0.00 0.00 0.00 90 1014.8
20260903101505 61 102 0.0 0.0 0.00 0.00 0.00 90 1014.9
20260903100434 61 101 0.0 0.0 0.00 0.00 0.00 90 1015.0
20260903095417 61 102 0.0 0.0 0.00 0.00 0.00 90 1015.2
20260903094353 61 102 0.0 0.0 0.00 0.00 0.00 90 1015.2
20260903093359 61 102 0.0 0.0 0.00 0.00 0.00 89 1015.3
20260903092407 61 102 0.0 0.0 0.00 0.00 0.00 89 1015.4
20260903091416 62 101 0.0 0.0 0.00 0.00 0.00 89 1015.4
20260903090435 62 101 0.0 0.0 0.00 0.00 0.00 89 1015.4
20260903085404 62 101 0.0 0.0 0.00 0.00 0.00 89 1015.5
20260903084341 62 101 0.0 0.0 0.00 0.00 0.00 89 1015.5
20260903083356 62 102 0.0 0.0 0.00 0.00 0.00 88 1015.6
20260903082400 62 101 0.0 0.0 0.00 0.00 0.00 88 1015.7
20260903081348 63 102 0.0 0.0 0.00 0.00 0.00 88 1015.7
20260903080407 63 102 0.0 0.0 0.00 0.00 0.00 89 1015.7
20260903075412 63 102 0.0 0.0 0.00 0.00 0.00 88 1015.7
20260903073256 63 102 0.0 0.0 0.00 0.00 0.00 88 1015.8
20260903070043 64 102 0.0 0.0 0.00 0.00 0.00 87 1015.6
20260903065042 64 102 0.0 0.0 0.00 0.00 0.00 87 1015.7
20260903062942 64 101 0.0 0.0 0.00 0.00 0.00 87 1015.6
20260903061908 64 102 0.0 0.0 0.00 0.00 0.00 86 1015.6
20260903060848 65 102 0.0 0.0 0.00 0.00 0.00 86 1015.7
20260903055857 65 102 0.0 0.0 0.00 0.00 0.00 86 1015.7
20260903053752 65 101 0.0 0.0 0.00 0.00 0.00 85 1015.8
20260903052721 66 102 0.0 0.0 0.00 0.00 0.00 86 1015.9
20260903051648 66 102 0.0 0.0 0.00 0.00 0.00 85 1016.0
20260903050613 66 102 0.0 0.0 0.00 0.00 0.00 84 1015.9
20260903045610 66 102 0.0 0.0 0.00 0.00 0.00 84 1015.9
20260903043428 67 101 0.0 0.0 0.00 0.00 0.00 83 1015.8
20260903042431 67 102 0.0 0.0 0.00 0.00 0.00 83 1015.8
20260903041425 67 102 0.0 0.0 0.00 0.00 0.00 82 1015.7
20260903040414 68 102 0.0 0.0 0.00 0.00 0.00 82 1015.6
20260903035341 68 102 0.0 0.0 0.00 0.00 0.00 81 1015.4
20260903034401 68 102 0.0 0.0 0.00 0.00 0.00 81 1015.3
20260903033338 69 102 0.0 0.0 0.00 0.00 0.00 81 1015.4
20260903030103 70 101 0.0 0.0 0.00 0.00 0.00 79 1015.0
20260903024000 70 101 0.0 0.0 0.00 0.00 0.00 78 1014.9
20260903023006 71 101 0.0 0.0 0.00 0.00 0.00 78 1014.9
20260903022026 71 101 0.0 0.0 0.00 0.00 0.00 77 1015.0
20260903020955 71 101 0.0 0.0 0.00 0.00 0.00 77 1014.9
20260903020002 72 99 0.0 0.0 0.00 0.00 0.00 76 1015.0
20260903014949 72 95 0.0 0.0 0.00 0.00 0.00 74 1014.9
20260903013931 73 112 0.0 2.0 0.00 0.00 0.00 73 1014.9
20260903012920 73 98 0.0 0.0 0.00 0.00 0.00 72 1014.9
20260903010816 74 95 0.0 0.0 0.00 0.00 0.00 69 1014.9
20260903004653 75 94 0.0 0.0 0.00 0.00 0.00 66 1014.9
20260903003625 77 100 0.0 0.0 0.00 0.00 0.00 63 1014.8
20260903001555 78 116 0.0 0.0 0.00 0.00 0.00 64 1014.9
20260903000600 78 115 0.0 0.0 0.00 0.00 0.00 63 1014.9
20260902235548 79 107 0.0 0.0 0.00 0.00 0.00 63 1014.9
20260902233338 79 105 0.0 0.0 0.00 0.00 0.00 63 1015.2
20260902232345 79 130 0.0 6.0 0.00 0.00 0.00 65 1015.1
20260902231321 79 81 0.0 0.0 0.00 0.00 0.00 63 1015.2
20260902230255 79 84 0.0 0.0 0.00 0.00 0.00 63 1015.2
20260902225228 80 127 0.0 0.0 0.00 0.00 0.00 61 1015.3
20260902224230 79 100 0.0 0.0 0.00 0.00 0.00 61 1015.4
20260902223200 79 117 0.0 0.0 0.00 0.00 0.00 62 1015.5
20260902222151 79 99 0.0 0.0 0.00 0.00 0.00 63 1015.5
20260902221159 79 113 0.0 0.0 0.00 0.00 0.00 62 1015.7
20260902220126 78 85 0.0 0.0 0.00 0.00 0.00 62 1015.6
20260902215055 79 106 0.0 0.0 0.00 0.00 0.00 63 1015.5
20260902214029 78 97 0.0 0.0 0.00 0.00 0.00 63 1015.6
20260902213030 79 111 0.0 0.0 0.00 0.00 0.00 64 1015.7
20260902212037 78 143 0.0 5.0 0.00 0.00 0.00 65 1015.6
20260902211021 78 111 0.0 0.0 0.00 0.00 0.00 65 1015.9
20260902210034 79 117 0.0 0.0 0.00 0.00 0.00 64 1015.9
20260902205014 78 111 0.0 4.0 0.00 0.00 0.00 65 1015.9
20260902203943 78 103 0.0 0.0 0.00 0.00 0.00 66 1016.0
20260902201736 77 121 0.0 3.0 0.00 0.00 0.00 68 1016.2
20260902200742 78 83 0.0 0.0 0.00 0.00 0.00 68 1016.2
20260902195727 77 110 0.0 0.0 0.00 0.00 0.00 68 1016.4
20260902194739 77 111 0.0 0.0 0.00 0.00 0.00 67 1016.4
20260902193730 78 104 0.0 0.0 0.00 0.00 0.00 67 1016.5
20260902192734 78 128 0.0 0.0 0.00 0.00 0.00 68 1016.6
20260902191701 78 96 0.0 0.0 0.00 0.00 0.00 68 1016.6
20260902190649 78 115 0.0 0.0 0.00 0.00 0.00 67 1016.6
20260902185620 78 125 0.0 0.0 0.00 0.00 0.00 68 1016.6
20260902184549 77 113 0.0 6.0 0.00 0.00 0.00 69 1016.8
20260902183544 77 95 0.0 0.0 0.00 0.00 0.00 69 1017.0
20260902182528 77 98 0.0 0.0 0.00 0.00 0.00 69 1017.0
20260902180415 77 110 0.0 0.0 0.00 0.00 0.00 69 1017.2
20260902175416 77 113 0.0 0.0 0.00 0.00 0.00 69 1017.1
20260902174427 78 114 0.0 0.0 0.00 0.00 0.00 67 1017.1
20260902173422 77 96 0.0 0.0 0.00 0.00 0.00 67 1017.0
20260902172355 77 107 0.0 0.0 0.00 0.00 0.00 68 1017.0
20260902170148 76 119 0.0 0.0 0.00 0.00 0.00 68 1016.9